When you browse on this site, cookies collect data to enhance your experience and personalize the content and advertising you see.
Visit our Privacy Policy to learn more. By continuing to use the site, you agree to this use of cookies and data.
  • en Suisse
  • Liste des pays
  • À 7 jours
  • Température de l'eau
  • Carte satellitaire
  • Carte météo
  • Widgets météo
  • user-avatar
    Se connecter

    Météo par heure à Goslar

    Ce jour, 21 Juillet, Dimanche

    Heure Température Précipitation Vent Pression Humidité
    00:00 +16°C° 0 mm 2 m/s 733 mmHg 91%
    01:00 +16°C° 0 mm 2 m/s 733 mmHg 92%
    02:00 +16°C° 0 mm 2 m/s 733 mmHg 93%
    03:00 +16°C° 0 mm 2 m/s 733 mmHg 94%
    04:00 +16°C° 0 mm 2 m/s 733 mmHg 95%
    05:00 +16°C° 0 mm 3 m/s 734 mmHg 93%
    06:00 +17°C° 0 mm 3 m/s 734 mmHg 91%
    07:00 +18°C° 0 mm 4 m/s 735 mmHg 89%
    08:00 +19°C° 0 mm 4 m/s 735 mmHg 84%
    09:00 +20°C° 0 mm 5 m/s 736 mmHg 78%
    10:00 +21°C° 0 mm 5 m/s 736 mmHg 72%
    11:00 +22°C° 0.1 mm 5 m/s 736 mmHg 69%
    12:00 +22°C° 0.1 mm 5 m/s 737 mmHg 65%
    13:00 +23°C° 0.1 mm 5 m/s 737 mmHg 62%
    14:00 +23°C° 0.1 mm 4 m/s 737 mmHg 61%
    15:00 +23°C° 0.1 mm 4 m/s 738 mmHg 61%
    16:00 +23°C° 0.1 mm 4 m/s 738 mmHg 61%
    17:00 +22°C° 0.2 mm 3 m/s 738 mmHg 67%
    18:00 +21°C° 0.2 mm 3 m/s 738 mmHg 74%
    19:00 +20°C° 0.2 mm 2 m/s 738 mmHg 80%
    20:00 +18°C° 0 mm 2 m/s 738 mmHg 83%
    21:00 +18°C° 0 mm 1 m/s 739 mmHg 86%
    22:00 +15°C° 0 mm 1 m/s 739 mmHg 89%
    23:00 +15°C° 0 mm 1 m/s 739 mmHg 89%

    Demain, 22 Juillet, Lundi

    Heure Température Précipitation Vent Pression Humidité
    00:00 +14°C° 0 mm 0 m/s 739 mmHg 89%
    01:00 +13°C° 0 mm 0 m/s 739 mmHg 89%
    02:00 +14°C° 0 mm 1 m/s 739 mmHg 89%
    03:00 +14°C° 0 mm 1 m/s 739 mmHg 90%
    04:00 +14°C° 0 mm 1 m/s 739 mmHg 90%
    05:00 +15°C° 0 mm 1 m/s 739 mmHg 88%
    06:00 +16°C° 0 mm 1 m/s 740 mmHg 86%
    07:00 +19°C° 0 mm 1 m/s 740 mmHg 83%
    08:00 +19°C° 0 mm 2 m/s 740 mmHg 78%
    09:00 +20°C° 0 mm 2 m/s 740 mmHg 73%
    10:00 +21°C° 0 mm 3 m/s 740 mmHg 67%
    11:00 +22°C° 0 mm 3 m/s 740 mmHg 66%
    12:00 +23°C° 0 mm 2 m/s 740 mmHg 65%
    13:00 +23°C° 0 mm 2 m/s 740 mmHg 63%
    14:00 +24°C° 0 mm 2 m/s 740 mmHg 60%
    15:00 +25°C° 0 mm 3 m/s 740 mmHg 58%
    16:00 +25°C° 0 mm 3 m/s 740 mmHg 55%
    17:00 +25°C° 0 mm 3 m/s 740 mmHg 59%
    18:00 +24°C° 0 mm 2 m/s 740 mmHg 64%
    19:00 +23°C° 0 mm 1 m/s 739 mmHg 69%
    20:00 +21°C° 0 mm 1 m/s 740 mmHg 72%
    21:00 +20°C° 0 mm 1 m/s 740 mmHg 75%
    22:00 +18°C° 0 mm 1 m/s 740 mmHg 78%
    23:00 +18°C° 0 mm 1 m/s 740 mmHg 78%

    Après-demain, 23 Juillet, Mardi

    Heure Température Précipitation Vent Pression Humidité
    00:00 +18°C° 0 mm 1 m/s 740 mmHg 78%
    01:00 +18°C° 0 mm 1 m/s 740 mmHg 78%
    02:00 +16°C° 0 mm 1 m/s 740 mmHg 78%
    03:00 +16°C° 0 mm 1 m/s 740 mmHg 79%
    04:00 +16°C° 0 mm 1 m/s 740 mmHg 80%
    05:00 +18°C° 0 mm 1 m/s 740 mmHg 76%
    06:00 +18°C° 0 mm 0 m/s 740 mmHg 73%
    07:00 +19°C° 0 mm 0 m/s 740 mmHg 70%
    08:00 +21°C° 0 mm 0 m/s 740 mmHg 66%
    09:00 +22°C° 0 mm 0 m/s 740 mmHg 62%
    10:00 +26°C° 0 mm 1 m/s 740 mmHg 58%
    11:00 +27°C° 0 mm 1 m/s 740 mmHg 56%
    12:00 +28°C° 0 mm 1 m/s 740 mmHg 54%
    13:00 +29°C° 0 mm 1 m/s 740 mmHg 52%
    14:00 +29°C° 0 mm 1 m/s 739 mmHg 52%
    15:00 +29°C° 0 mm 1 m/s 739 mmHg 52%
    16:00 +29°C° 0 mm 1 m/s 739 mmHg 52%
    17:00 +28°C° 0 mm 1 m/s 738 mmHg 57%
    18:00 +27°C° 0 mm 1 m/s 738 mmHg 63%
    19:00 +26°C° 0 mm 1 m/s 738 mmHg 69%
    20:00 +24°C° 0 mm 1 m/s 738 mmHg 72%
    21:00 +23°C° 0 mm 1 m/s 738 mmHg 76%
    22:00 +21°C° 0 mm 1 m/s 738 mmHg 79%
    23:00 +21°C° 0 mm 1 m/s 738 mmHg 78%

    24 Juillet, Mercredi

    Heure Température Précipitation Vent Pression Humidité
    00:00 +21°C° 0 mm 1 m/s 738 mmHg 77%
    01:00 +20°C° 0 mm 1 m/s 738 mmHg 77%
    02:00 +20°C° 0 mm 1 m/s 737 mmHg 77%
    03:00 +20°C° 0 mm 1 m/s 737 mmHg 77%
    04:00 +19°C° 0 mm 1 m/s 737 mmHg 77%
    05:00 +21°C° 0 mm 1 m/s 737 mmHg 75%
    06:00 +22°C° 0 mm 1 m/s 737 mmHg 72%
    07:00 +23°C° 0 mm 1 m/s 737 mmHg 70%
    08:00 +25°C° 0 mm 2 m/s 737 mmHg 65%
    09:00 +27°C° 0 mm 2 m/s 737 mmHg 61%
    10:00 +29°C° 0 mm 2 m/s 737 mmHg 56%
    11:00 +29°C° 0 mm 2 m/s 737 mmHg 54%
    12:00 +30°C° 0 mm 3 m/s 737 mmHg 52%
    13:00 +31°C° 0 mm 3 m/s 737 mmHg 50%
    14:00 +31°C° 0 mm 3 m/s 736 mmHg 50%
    15:00 +31°C° 0 mm 3 m/s 736 mmHg 50%
    16:00 +31°C° 0 mm 3 m/s 736 mmHg 51%
    17:00 +30°C° 0 mm 3 m/s 736 mmHg 55%
    18:00 +28°C° 0 mm 3 m/s 735 mmHg 59%
    19:00 +27°C° 0 mm 2 m/s 735 mmHg 64%
    20:00 +26°C° 0 mm 2 m/s 735 mmHg 63%
    21:00 +25°C° 0 mm 2 m/s 736 mmHg 62%
    22:00 +24°C° 0 mm 2 m/s 736 mmHg 61%
    23:00 +23°C° 0 mm 2 m/s 736 mmHg 62%

    25 Juillet, Jeudi

    Heure Température Précipitation Vent Pression Humidité
    00:00 +23°C° 0 mm 2 m/s 736 mmHg 63%
    01:00 +23°C° 0 mm 2 m/s 736 mmHg 64%
    02:00 +21°C° 0 mm 2 m/s 735 mmHg 65%
    03:00 +22°C° 0 mm 1 m/s 735 mmHg 67%
    04:00 +22°C° 0 mm 1 m/s 735 mmHg 68%
    05:00 +23°C° 0 mm 1 m/s 735 mmHg 68%
    06:00 +24°C° 0 mm 1 m/s 735 mmHg 67%
    07:00 +26°C° 0 mm 1 m/s 735 mmHg 67%
    08:00 +27°C° 0 mm 2 m/s 735 mmHg 61%
    09:00 +29°C° 0 mm 2 m/s 735 mmHg 56%
    10:00 +31°C° 0 mm 3 m/s 735 mmHg 51%
    11:00 +31°C° 0 mm 3 m/s 735 mmHg 49%
    12:00 +33°C° 0 mm 4 m/s 735 mmHg 46%
    13:00 +33°C° 0 mm 4 m/s 734 mmHg 44%
    14:00 +33°C° 0 mm 4 m/s 734 mmHg 44%
    15:00 +33°C° 0 mm 4 m/s 734 mmHg 44%
    16:00 +33°C° 0 mm 4 m/s 733 mmHg 44%
    17:00 +32°C° 0 mm 4 m/s 733 mmHg 50%
    18:00 +30°C° 0 mm 4 m/s 733 mmHg 56%
    19:00 +28°C° 0 mm 3 m/s 732 mmHg 61%
    20:00 +27°C° 0 mm 4 m/s 732 mmHg 61%
    21:00 +27°C° 0 mm 4 m/s 732 mmHg 61%
    22:00 +26°C° 0 mm 4 m/s 732 mmHg 61%
    23:00 +25°C° 0 mm 3 m/s 732 mmHg 63%

    26 Juillet, Vendredi

    Heure Température Précipitation Vent Pression Humidité
    00:00 +25°C° 0 mm 3 m/s 732 mmHg 64%
    01:00 +24°C° 0 mm 3 m/s 732 mmHg 66%
    02:00 +24°C° 0 mm 3 m/s 731 mmHg 68%
    03:00 +23°C° 0 mm 2 m/s 731 mmHg 70%
    04:00 +23°C° 0 mm 2 m/s 731 mmHg 72%
    05:00 +24°C° 0 mm 2 m/s 731 mmHg 71%
    06:00 +25°C° 0 mm 2 m/s 731 mmHg 70%
    07:00 +26°C° 0 mm 2 m/s 731 mmHg 69%
    08:00 +27°C° 0 mm 3 m/s 731 mmHg 68%
    09:00 +27°C° 0 mm 4 m/s 732 mmHg 66%
    10:00 +28°C° 0 mm 4 m/s 732 mmHg 65%
    11:00 +27°C° 0.5 mm 5 m/s 732 mmHg 69%
    12:00 +27°C° 0.5 mm 5 m/s 732 mmHg 73%
    13:00 +26°C° 0.5 mm 5 m/s 732 mmHg 76%
    14:00 +25°C° 0.8 mm 4 m/s 732 mmHg 79%
    15:00 +24°C° 0.8 mm 3 m/s 732 mmHg 82%
    16:00 +23°C° 0.8 mm 2 m/s 732 mmHg 85%
    17:00 +23°C° 0.1 mm 2 m/s 732 mmHg 87%
    18:00 +21°C° 0.1 mm 3 m/s 732 mmHg 89%
    19:00 +21°C° 0.1 mm 3 m/s 732 mmHg 90%
    20:00 +20°C° 0.2 mm 3 m/s 733 mmHg 91%
    21:00 +19°C° 0.2 mm 4 m/s 733 mmHg 91%
    22:00 +19°C° 0.2 mm 4 m/s 733 mmHg 91%
    23:00 +18°C° 0.1 mm 3 m/s 733 mmHg 92%
    Voir plus